FW4699 Weather Reports


time (UTC)temp
C
wind
direction
speed
KPH
gust
KPH
rain 1hr
cm
rain 24hr
cm
rain mn
cm
humidity
%
barometer
mb
20260507133210 17 160 9.7 14.5 0.00 0.00 0.00 47 1014.9
20260507132809 17 189 9.7 12.9 0.00 0.00 0.00 47 1014.9
20260507132610 17 141 12.9 12.9 0.00 0.00 0.00 48 1014.9
20260507132410 17 180 9.7 14.5 0.00 0.00 0.00 48 1014.9
20260507132210 17 174 14.5 14.5 0.00 0.00 0.00 47 1014.9
20260507132016 17 177 9.7 11.3 0.00 0.00 0.00 47 1014.9
20260507131810 17 180 8.0 8.0 0.00 0.00 0.00 48 1014.9
20260507131410 17 167 9.7 14.5 0.00 0.00 0.00 48 1014.9
20260507131210 17 177 9.7 12.9 0.00 0.00 0.00 48 1014.9
20260507131016 17 164 8.0 11.3 0.00 0.00 0.00 48 1014.9
20260507130810 17 172 9.7 12.9 0.00 0.00 0.00 47 1014.9
20260507130611 17 172 8.0 11.3 0.00 0.00 0.00 49 1014.6
20260507130410 17 182 9.7 12.9 0.00 0.00 0.00 47 1014.9
20260507130210 17 175 9.7 12.9 0.00 0.00 0.00 47 1014.9
20260507125809 17 174 11.3 12.9 0.00 0.00 0.00 47 1014.9
20260507125610 17 178 9.7 12.9 0.00 0.00 0.00 48 1014.9
20260507125410 17 173 9.7 9.7 0.00 0.00 0.00 47 1014.9
20260507125210 17 183 8.0 11.3 0.00 0.00 0.00 47 1014.9
20260507125017 17 179 9.7 9.7 0.00 0.00 0.00 47 1014.9
20260507124810 17 172 6.4 8.0 0.00 0.00 0.00 47 1014.9
20260507124611 17 180 6.4 12.9 0.00 0.00 0.00 46 1014.9
20260507124410 17 168 9.7 12.9 0.00 0.00 0.00 46 1014.9
20260507124210 17 174 9.7 12.9 0.00 0.00 0.00 46 1014.9
20260507124017 17 178 11.3 14.5 0.00 0.00 0.00 45 1014.9
20260507123610 17 160 8.0 9.7 0.00 0.00 0.00 46 1014.9
20260507123410 17 178 9.7 17.7 0.00 0.00 0.00 45 1014.9
20260507123210 17 162 14.5 14.5 0.00 0.00 0.00 45 1014.9
20260507123025 17 154 11.3 14.5 0.00 0.00 0.00 44 1014.9
20260507122810 17 162 9.7 12.9 0.00 0.00 0.00 44 1015.2
20260507122611 17 173 8.0 11.3 0.00 0.00 0.00 43 1014.9
20260507122414 17 177 9.7 11.3 0.00 0.00 0.00 43 1014.9
20260507122210 17 178 9.7 12.9 0.00 0.00 0.00 43 1014.9
20260507122016 18 174 9.7 11.3 0.00 0.00 0.00 44 1014.9
20260507121809 18 174 11.3 12.9 0.00 0.00 0.00 44 1014.9
20260507121610 18 163 11.3 12.9 0.00 0.00 0.00 44 1014.9
20260507121410 18 163 6.4 12.9 0.00 0.00 0.00 45 1014.9
20260507121210 18 177 9.7 12.9 0.00 0.00 0.00 44 1014.9
20260507121016 18 153 9.7 14.5 0.00 0.00 0.00 45 1014.9
20260507120811 18 171 6.4 12.9 0.00 0.00 0.00 45 1014.9
20260507120610 18 180 11.3 12.9 0.00 0.00 0.00 44 1014.9
20260507120210 18 171 8.0 12.9 0.00 0.00 0.00 43 1014.9
20260507115810 18 180 8.0 12.9 0.00 0.00 0.00 44 1014.9
20260507115610 18 182 8.0 12.9 0.00 0.00 0.00 43 1014.9
20260507115409 19 158 9.7 14.5 0.00 0.00 0.00 45 1014.9
20260507115211 19 147 9.7 16.1 0.00 0.00 0.00 45 1015.2
20260507115016 19 133 12.9 17.7 0.00 0.00 0.00 46 1014.9
20260507114810 19 143 12.9 14.5 0.00 0.00 0.00 45 1014.9
20260507114610 19 135 12.9 16.1 0.00 0.00 0.00 44 1015.2
20260507114410 19 140 14.5 14.5 0.00 0.00 0.00 47 1015.2
20260507114210 19 179 9.7 17.7 0.00 0.00 0.00 46 1014.9
20260507114016 19 156 9.7 17.7 0.00 0.00 0.00 46 1014.9
20260507113809 19 125 14.5 19.3 0.00 0.00 0.00 45 1014.9
20260507113610 20 144 12.9 14.5 0.00 0.00 0.00 44 1014.9
20260507113410 20 151 9.7 16.1 0.00 0.00 0.00 44 1015.2
20260507113210 19 167 9.7 14.5 0.00 0.00 0.00 46 1015.2
20260507113024 19 150 12.9 14.5 0.00 0.00 0.00 46 1015.2
20260507112810 19 169 4.8 12.9 0.00 0.00 0.00 46 1014.9
20260507112609 19 145 12.9 16.1 0.00 0.00 0.00 46 1015.2
20260507112409 19 148 12.9 14.5 0.00 0.00 0.00 45 1015.2
20260507112210 19 150 11.3 17.7 0.00 0.00 0.00 44 1015.2
20260507112016 18 149 11.3 14.5 0.00 0.00 0.00 47 1015.2
20260507111810 18 168 6.4 17.7 0.00 0.00 0.00 47 1015.2
20260507111610 18 157 6.4 9.7 0.00 0.00 0.00 48 1015.2
20260507111210 18 150 11.3 12.9 0.00 0.00 0.00 46 1015.2
20260507111016 18 168 9.7 14.5 0.00 0.00 0.00 46 1015.2
20260507110810 18 162 11.3 12.9 0.00 0.00 0.00 48 1015.2
20260507110409 18 160 9.7 12.9 0.00 0.00 0.00 47 1015.2
20260507110210 18 167 8.0 12.9 0.00 0.00 0.00 47 1015.2
20260507110036 18 151 12.9 17.7 0.00 0.00 0.00 47 1015.2
20260507105809 18 160 9.7 11.3 0.00 0.00 0.00 47 1015.2
20260507105609 18 163 9.7 11.3 0.00 0.00 0.00 48 1015.6
20260507105410 18 178 6.4 12.9 0.00 0.00 0.00 48 1015.2
20260507105210 18 171 6.4 9.7 0.00 0.00 0.00 46 1015.2
20260507105015 18 179 9.7 17.7 0.00 0.00 0.00 46 1015.6
20260507104809 18 179 6.4 8.0 0.00 0.00 0.00 49 1015.6
20260507104611 18 162 8.0 12.9 0.00 0.00 0.00 50 1015.2
20260507104410 18 151 12.9 17.7 0.00 0.00 0.00 51 1015.2
20260507104210 18 133 12.9 14.5 0.00 0.00 0.00 54 1015.2
20260507104018 18 192 9.7 9.7 0.00 0.00 0.00 54 1015.2
20260507103810 17 173 6.4 12.9 0.00 0.00 0.00 53 1015.2
20260507103610 18 185 9.7 11.3 0.00 0.00 0.00 52 1015.2
20260507103410 18 180 9.7 9.7 0.00 0.00 0.00 54 1015.2
20260507103210 17 188 9.7 9.7 0.00 0.00 0.00 53 1015.2
20260507103024 18 181 9.7 12.9 0.00 0.00 0.00 52 1015.2
20260507102810 18 169 11.3 12.9 0.00 0.00 0.00 51 1015.2
20260507102610 18 183 4.8 12.9 0.00 0.00 0.00 51 1015.2
20260507102409 18 173 12.9 12.9 0.00 0.00 0.00 52 1015.2
20260507102210 18 172 8.0 9.7 0.00 0.00 0.00 52 1015.2
20260507102016 18 179 4.8 8.0 0.00 0.00 0.00 53 1015.6
20260507101811 19 171 4.8 14.5 0.00 0.00 0.00 53 1015.2
20260507101610 19 145 12.9 16.1 0.00 0.00 0.00 52 1015.2
20260507101210 19 155 6.4 14.5 0.00 0.00 0.00 55 1015.2
20260507101015 19 161 11.3 14.5 0.00 0.00 0.00 54 1015.2
20260507100810 19 172 9.7 12.9 0.00 0.00 0.00 55 1015.2
20260507100610 19 161 12.9 16.1 0.00 0.00 0.00 56 1015.6
20260507100410 19 177 8.0 11.3 0.00 0.00 0.00 57 1015.6
20260507100210 19 138 8.0 16.1 0.00 0.00 0.00 58 1015.6
20260507100035 19 162 8.0 9.7 0.00 0.00 0.00 57 1015.6
20260507095809 18 156 8.0 12.9 0.00 0.00 0.00 58 1015.2
20260507095610 18 164 11.3 12.9 0.00 0.00 0.00 58 1015.2
20260507095410 18 168 8.0 9.7 0.00 0.00 0.00 60 1015.2
20260507095210 18 167 6.4 11.3 0.00 0.00 0.00 59 1015.2
20260507095015 18 155 11.3 12.9 0.00 0.00 0.00 60 1015.6
20260507094810 18 172 4.8 11.3 0.00 0.00 0.00 62 1015.2
20260507094610 18 181 9.7 12.9 0.00 0.00 0.00 62 1015.2
20260507094409 18 165 4.8 11.3 0.00 0.00 0.00 63 1015.6
20260507094210 18 159 9.7 11.3 0.00 0.00 0.00 63 1015.6
20260507094017 18 174 6.4 9.7 0.00 0.00 0.00 64 1015.6
20260507093610 17 145 6.4 11.3 0.00 0.00 0.00 64 1015.6
20260507093411 17 187 6.4 9.7 0.00 0.00 0.00 63 1015.2
20260507093210 17 174 9.7 12.9 0.00 0.00 0.00 64 1015.2
20260507093024 17 168 11.3 12.9 0.00 0.00 0.00 67 1015.6
20260507092810 17 164 9.7 12.9 0.00 0.00 0.00 67 1015.6
20260507092610 17 159 6.4 14.5 0.00 0.00 0.00 65 1015.2
20260507092410 17 185 8.0 9.7 0.00 0.00 0.00 66 1015.2
20260507092210 17 175 8.0 12.9 0.00 0.00 0.00 63 1015.2
20260507092021 17 187 9.7 12.9 0.00 0.00 0.00 65 1015.6
20260507091810 17 171 12.9 12.9 0.00 0.00 0.00 69 1015.6
20260507091610 17 181 8.0 12.9 0.00 0.00 0.00 68 1015.6
20260507091410 17 186 8.0 11.3 0.00 0.00 0.00 69 1015.2
20260507091210 17 180 9.7 11.3 0.00 0.00 0.00 69 1015.2
20260507091016 17 163 8.0 12.9 0.00 0.00 0.00 68 1015.2
20260507090810 16 179 8.0 12.9 0.00 0.00 0.00 70 1015.2
20260507090410 16 185 6.4 9.7 0.00 0.00 0.00 70 1015.6
20260507090210 16 177 6.4 9.7 0.00 0.00 0.00 71 1015.2
20260507085810 16 180 9.7 9.7 0.00 0.00 0.00 72 1015.2
20260507085611 16 195 9.7 11.3 0.00 0.00 0.00 74 1015.6
20260507085210 16 190 11.3 11.3 0.00 0.00 0.00 75 1015.2
20260507085017 15 162 8.0 9.7 0.00 0.00 0.00 75 1015.2
20260507084610 15 171 9.7 12.9 0.00 0.00 0.00 77 1015.2
20260507084410 15 155 11.3 12.9 0.00 0.00 0.00 77 1015.2
20260507084210 15 184 8.0 9.7 0.00 0.00 0.00 77 1015.2
20260507084017 15 189 6.4 9.7 0.00 0.00 0.00 78 1015.2
20260507083810 15 173 8.0 12.9 0.00 0.00 0.00 79 1015.6
20260507083609 14 184 8.0 9.7 0.00 0.00 0.00 81 1015.2
20260507083410 14 175 9.7 11.3 0.00 0.00 0.00 80 1015.2
20260507083210 13 174 9.7 11.3 0.00 0.00 0.00 81 1015.6
20260507083025 13 189 8.0 12.9 0.00 0.00 0.00 82 1015.2
20260507082810 13 158 9.7 9.7 0.00 0.00 0.00 83 1015.2
20260507082610 13 177 9.7 9.7 0.00 0.00 0.00 84 1015.2
20260507082210 13 192 8.0 11.3 0.00 0.00 0.00 85 1015.2
20260507081609 12 173 6.4 9.7 0.00 0.00 0.00 84 1015.2
20260507081410 12 184 9.7 11.3 0.00 0.00 0.00 84 1015.2
20260507081209 12 167 9.7 11.3 0.00 0.00 0.00 85 1015.2
20260507081015 12 180 8.0 11.3 0.00 0.00 0.00 85 1015.2
20260507080810 12 181 8.0 9.7 0.00 0.00 0.00 85 1015.2
20260507080610 12 180 8.0 9.7 0.00 0.00 0.00 85 1015.2
20260507080410 12 180 6.4 9.7 0.00 0.00 0.00 85 1015.2
20260507080211 12 188 8.0 9.7 0.00 0.00 0.00 86 1015.2
20260507080034 12 174 6.4 9.7 0.00 0.00 0.00 86 1015.6
20260507075810 12 165 4.8 9.7 0.00 0.00 0.00 86 1015.2
20260507075409 12 177 8.0 9.7 0.00 0.00 0.00 86 1015.2
20260507075210 12 168 6.4 9.7 0.00 0.00 0.00 86 1015.2
20260507075016 12 177 9.7 12.9 0.00 0.00 0.00 86 1015.2
20260507074810 12 180 11.3 12.9 0.00 0.00 0.00 87 1015.6
20260507074610 12 177 11.3 11.3 0.00 0.00 0.00 88 1015.2
20260507074410 12 171 9.7 9.7 0.00 0.00 0.00 88 1015.2
20260507074210 12 173 6.4 9.7 0.00 0.00 0.00 87 1015.2
20260507074017 12 167 9.7 12.9 0.00 0.00 0.00 87 1015.2
20260507073810 11 171 11.3 12.9 0.00 0.00 0.00 88 1015.2
20260507073610 11 176 11.3 12.9 0.00 0.00 0.00 88 1015.2
20260507073210 11 188 8.0 9.7 0.00 0.00 0.00 88 1015.2
20260507073024 11 181 8.0 9.7 0.00 0.00 0.00 89 1015.2
20260507072811 11 180 6.4 9.7 0.00 0.00 0.00 89 1015.2
20260507072610 11 182 8.0 9.7 0.00 0.00 0.00 90 1015.2
20260507072016 11 189 9.7 9.7 0.00 0.00 0.00 90 1015.2
20260507071810 11 178 6.4 9.7 0.00 0.00 0.00 91 1014.9
20260507071410 11 182 8.0 9.7 0.00 0.00 0.00 91 1015.2
20260507071210 11 167 6.4 9.7 0.00 0.00 0.00 91 1015.2
20260507071017 11 188 9.7 9.7 0.00 0.00 0.00 92 1015.2
20260507070810 11 179 9.7 11.3 0.00 0.00 0.00 92 1015.2
20260507070610 11 175 9.7 9.7 0.00 0.00 0.00 91 1014.9
20260507070411 11 180 8.0 9.7 0.00 0.00 0.00 92 1015.2
20260507070211 10 167 9.7 9.7 0.00 0.00 0.00 92 1015.2
20260507065810 10 182 8.0 9.7 0.00 0.00 0.00 92 1015.2
20260507065610 10 178 8.0 9.7 0.00 0.00 0.00 92 1015.2
20260507065410 10 180 8.0 11.3 0.00 0.00 0.00 92 1014.9
20260507065210 10 177 9.7 11.3 0.00 0.00 0.00 92 1015.2
20260507065017 10 180 8.0 9.7 0.00 0.00 0.00 93 1015.2
20260507064610 10 169 6.4 9.7 0.00 0.00 0.00 93 1014.9
20260507064410 10 178 9.7 11.3 0.00 0.00 0.00 93 1014.9
20260507063810 10 177 9.7 9.7 0.00 0.00 0.00 93 1014.9
20260507063610 10 181 6.4 9.7 0.00 0.00 0.00 93 1014.9
20260507063410 10 172 8.0 9.7 0.00 0.00 0.00 94 1014.9
20260507063210 10 177 8.0 9.7 0.00 0.00 0.00 94 1014.9
20260507063024 10 178 9.7 9.7 0.00 0.00 0.00 94 1014.9
20260507062810 10 176 8.0 9.7 0.00 0.00 0.00 94 1014.9
20260507062610 10 162 6.4 9.7 0.00 0.00 0.00 94 1014.9
20260507062410 10 180 8.0 9.7 0.00 0.00 0.00 94 1014.9
20260507062210 10 177 8.0 9.7 0.00 0.00 0.00 94 1014.9
20260507062017 10 182 9.7 9.7 0.00 0.00 0.00 94 1014.9
20260507061809 10 176 8.0 9.7 0.00 0.00 0.00 94 1014.6
20260507061610 10 176 8.0 9.7 0.00 0.00 0.00 95 1014.6
20260507061410 10 176 9.7 11.3 0.00 0.00 0.00 94 1014.6
20260507061210 10 170 9.7 9.7 0.00 0.00 0.00 95 1014.6
20260507061015 10 178 9.7 11.3 0.00 0.00 0.00 95 1014.6
20260507060809 10 173 9.7 9.7 0.00 0.00 0.00 95 1014.6
20260507060610 10 174 8.0 9.7 0.00 0.00 0.00 95 1014.6
20260507060410 10 178 9.7 11.3 0.00 0.00 0.00 95 1014.6
20260507060210 10 175 9.7 11.3 0.00 0.00 0.00 95 1014.6
20260507060033 9 176 9.7 9.7 0.00 0.00 0.00 95 1014.2
20260507055810 9 170 8.0 9.7 0.00 0.00 0.00 95 1014.6
20260507055615 9 175 9.7 11.3 0.00 0.00 0.00 95 1014.6
20260507055410 9 163 9.7 11.3 0.00 0.00 0.00 95 1014.2
20260507055210 9 180 9.7 14.5 0.00 0.00 0.00 95 1014.6
20260507055017 9 183 11.3 14.5 0.00 0.00 0.00 95 1014.6
20260507054810 9 180 9.7 12.9 0.00 0.00 0.00 95 1014.6
20260507054610 9 177 9.7 11.3 0.00 0.00 0.00 95 1014.6
20260507054210 9 174 9.7 9.7 0.00 0.00 0.00 95 1014.6
20260507054015 9 171 9.7 11.3 0.00 0.00 0.00 95 1014.6
20260507053810 9 179 9.7 9.7 0.00 0.00 0.00 95 1014.9
20260507053610 9 180 9.7 12.9 0.00 0.00 0.00 95 1014.6
20260507053410 9 165 9.7 11.3 0.00 0.00 0.00 95 1014.9
20260507053210 9 178 8.0 12.9 0.00 0.00 0.00 95 1014.6
20260507053023 9 173 9.7 11.3 0.00 0.00 0.00 95 1014.6
20260507052809 9 174 9.7 9.7 0.00 0.00 0.00 95 1014.6
20260507052610 9 176 8.0 9.7 0.00 0.00 0.00 95 1014.2
20260507052410 9 175 9.7 9.7 0.00 0.00 0.00 95 1014.6
20260507052210 9 180 9.7 12.9 0.00 0.00 0.00 95 1014.2
20260507052016 9 180 9.7 12.9 0.00 0.00 0.00 95 1014.6
20260507051809 9 174 11.3 12.9 0.00 0.00 0.00 95 1014.2
20260507051610 9 175 9.7 12.9 0.00 0.00 0.00 95 1014.6
20260507051410 9 178 9.7 14.5 0.00 0.00 0.00 95 1014.2
20260507051016 9 177 9.7 11.3 0.00 0.00 0.00 95 1014.2
20260507050810 8 179 9.7 12.9 0.00 0.00 0.00 95 1014.2
20260507050410 8 182 11.3 12.9 0.00 0.00 0.00 95 1014.6
20260507050210 8 176 9.7 11.3 0.00 0.00 0.00 95 1014.6
20260507045810 8 177 11.3 12.9 0.00 0.00 0.00 95 1014.2
20260507045610 8 177 9.7 11.3 0.00 0.00 0.00 95 1014.2
20260507045411 8 178 9.7 11.3 0.00 0.00 0.00 95 1014.2
20260507045210 8 174 9.7 11.3 0.00 0.00 0.00 95 1014.2
20260507045017 8 176 11.3 11.3 0.00 0.00 0.00 95 1014.2
20260507044810 8 177 9.7 12.9 0.00 0.00 0.00 95 1014.2
20260507044610 8 180 11.3 12.9 0.00 0.00 0.00 95 1014.2
20260507044410 8 176 9.7 9.7 0.00 0.00 0.00 95 1013.9
20260507044210 8 177 9.7 11.3 0.00 0.00 0.00 95 1014.2
20260507044016 8 174 9.7 11.3 0.00 0.00 0.00 95 1014.2
20260507043809 8 175 9.7 11.3 0.00 0.00 0.00 95 1014.2
20260507043611 8 177 9.7 11.3 0.00 0.00 0.00 95 1013.9
20260507043410 8 176 9.7 9.7 0.00 0.00 0.00 95 1014.2
20260507043210 8 175 11.3 11.3 0.00 0.00 0.00 95 1014.2
20260507043024 8 176 9.7 11.3 0.00 0.00 0.00 95 1013.9
20260507042810 8 178 9.7 12.9 0.00 0.00 0.00 95 1014.2
20260507042610 8 176 9.7 12.9 0.00 0.00 0.00 95 1014.2
20260507042410 8 178 11.3 12.9 0.00 0.00 0.00 95 1013.9
20260507042209 8 178 9.7 12.9 0.00 0.00 0.00 95 1013.9
20260507042017 8 179 11.3 12.9 0.00 0.00 0.00 95 1013.9
20260507041810 8 177 9.7 11.3 0.00 0.00 0.00 95 1013.9
20260507041610 8 177 9.7 12.9 0.00 0.00 0.00 95 1014.2
20260507041410 8 174 11.3 12.9 0.00 0.00 0.00 95 1013.9
20260507041210 8 177 12.9 12.9 0.00 0.00 0.00 95 1013.9
20260507040810 8 175 9.7 12.9 0.00 0.00 0.00 95 1013.9
20260507040610 8 177 9.7 11.3 0.00 0.00 0.00 95 1013.9
20260507040410 8 176 9.7 12.9 0.00 0.00 0.00 95 1013.9
20260507040210 8 178 11.3 12.9 0.00 0.00 0.00 95 1013.9
20260507040040 8 176 9.7 11.3 0.00 0.00 0.00 95 1013.9
20260507035610 8 177 12.9 12.9 0.00 0.00 0.00 95 1014.2
20260507035210 8 175 11.3 11.3 0.00 0.00 0.00 95 1013.9
20260507035015 8 177 11.3 11.3 0.00 0.00 0.00 95 1013.9
20260507034810 8 179 11.3 11.3 0.00 0.00 0.00 95 1013.9
20260507034610 8 176 11.3 12.9 0.00 0.00 0.00 95 1013.9
20260507034410 8 175 11.3 12.9 0.00 0.00 0.00 95 1013.9
20260507034210 8 176 11.3 12.9 0.00 0.00 0.00 95 1013.9
20260507033810 8 177 11.3 11.3 0.00 0.00 0.00 94 1013.9
20260507033610 8 177 9.7 11.3 0.00 0.00 0.00 94 1013.9
20260507033209 8 176 9.7 11.3 0.00 0.00 0.00 94 1013.9
20260507033022 8 177 9.7 11.3 0.00 0.00 0.00 94 1013.9
20260507032809 8 177 9.7 11.3 0.00 0.00 0.00 94 1013.5
20260507032610 8 178 9.7 11.3 0.00 0.00 0.00 94 1013.9
20260507032410 8 177 11.3 11.3 0.00 0.00 0.00 94 1013.5
20260507032211 8 176 9.7 11.3 0.00 0.00 0.00 94 1013.9
20260507032016 8 176 11.3 12.9 0.00 0.00 0.00 94 1013.5
20260507031810 8 176 9.7 11.3 0.00 0.00 0.00 94 1013.9
20260507031609 8 177 9.7 12.9 0.00 0.00 0.00 94 1013.9
20260507031410 8 178 11.3 12.9 0.00 0.00 0.00 94 1013.9
20260507031210 8 180 9.7 12.9 0.00 0.00 0.00 94 1013.9
20260507031017 8 178 11.3 11.3 0.00 0.00 0.00 94 1013.9
20260507030810 8 175 11.3 11.3 0.00 0.00 0.00 94 1013.9
20260507030409 8 175 9.7 12.9 0.00 0.00 0.00 94 1013.9
20260507030210 8 179 12.9 12.9 0.00 0.00 0.00 94 1014.2
20260507030034 8 179 9.7 11.3 0.00 0.00 0.00 94 1013.9
20260507025810 8 179 9.7 11.3 0.00 0.00 0.00 94 1013.9
20260507025410 8 178 9.7 11.3 0.00 0.00 0.00 94 1013.9
20260507025210 8 177 9.7 11.3 0.00 0.00 0.00 94 1013.9
20260507024809 8 177 9.7 11.3 0.00 0.00 0.00 94 1013.9
20260507024610 8 176 9.7 11.3 0.00 0.00 0.00 94 1013.9
20260507024410 8 178 9.7 11.3 0.00 0.00 0.00 94 1013.9
20260507024210 8 177 11.3 11.3 0.00 0.00 0.00 94 1013.9
20260507024015 8 178 9.7 11.3 0.00 0.00 0.00 94 1013.9
20260507023809 8 177 9.7 11.3 0.00 0.00 0.00 94 1013.9
20260507023610 8 178 9.7 11.3 0.00 0.00 0.00 94 1013.9
20260507023410 8 180 9.7 11.3 0.00 0.00 0.00 94 1013.9
20260507023023 8 178 11.3 11.3 0.00 0.00 0.00 94 1013.9
20260507022810 8 178 9.7 12.9 0.00 0.00 0.00 94 1013.9
20260507022610 8 173 9.7 12.9 0.00 0.00 0.00 94 1013.9
20260507022409 8 176 11.3 11.3 0.00 0.00 0.00 94 1013.9
20260507022210 8 178 9.7 11.3 0.00 0.00 0.00 94 1013.9
20260507022015 8 177 9.7 11.3 0.00 0.00 0.00 94 1013.9
20260507021810 8 180 9.7 11.3 0.00 0.00 0.00 94 1013.9
20260507021610 8 179 9.7 11.3 0.00 0.00 0.00 94 1013.9
20260507021210 8 175 9.7 11.3 0.00 0.00 0.00 94 1013.5
20260507020810 8 177 9.7 9.7 0.00 0.00 0.00 94 1013.9
20260507020615 8 174 9.7 9.7 0.00 0.00 0.00 94 1013.9
20260507020409 8 175 9.7 11.3 0.00 0.00 0.00 94 1013.9
20260507020210 8 176 9.7 11.3 0.00 0.00 0.00 94 1013.5
20260507015810 8 178 9.7 11.3 0.00 0.00 0.00 94 1013.5
20260507015610 8 179 9.7 11.3 0.00 0.00 0.00 94 1013.5
20260507015210 8 181 9.7 11.3 0.00 0.00 0.00 94 1013.5
20260507015016 8 175 11.3 11.3 0.00 0.00 0.00 94 1013.9
20260507014611 8 175 9.7 11.3 0.00 0.00 0.00 94 1013.5
20260507014410 8 179 9.7 9.7 0.00 0.00 0.00 94 1013.5
20260507014210 8 179 9.7 11.3 0.00 0.00 0.00 94 1013.5
20260507013810 8 179 11.3 11.3 0.00 0.00 0.00 94 1013.5
20260507013610 8 179 9.7 11.3 0.00 0.00 0.00 94 1013.5
20260507013410 8 179 11.3 11.3 0.00 0.00 0.00 94 1013.5
20260507013209 8 178 9.7 9.7 0.00 0.00 0.00 94 1013.5
20260507013023 8 179 9.7 11.3 0.00 0.00 0.00 94 1013.5
20260507012810 8 180 9.7 11.3 0.00 0.00 0.00 94 1013.5
20260507012610 8 172 9.7 11.3 0.00 0.00 0.00 93 1013.5
20260507012410 8 174 9.7 11.3 0.00 0.00 0.00 93 1013.5
20260507012210 8 177 11.3 12.9 0.00 0.00 0.00 93 1013.5
20260507012015 8 177 11.3 12.9 0.00 0.00 0.00 93 1013.5
20260507011809 8 180 9.7 12.9 0.00 0.00 0.00 93 1013.5
20260507011610 8 179 11.3 12.9 0.00 0.00 0.00 93 1013.5
20260507011409 8 178 9.7 12.9 0.00 0.00 0.00 93 1013.5
20260507011209 8 178 11.3 11.3 0.00 0.00 0.00 93 1013.5
20260507011016 8 177 9.7 9.7 0.00 0.00 0.00 93 1013.5
20260507010810 8 179 9.7 9.7 0.00 0.00 0.00 93 1013.5
20260507010610 8 175 9.7 11.3 0.00 0.00 0.00 93 1013.5
20260507010410 8 174 9.7 11.3 0.00 0.00 0.00 93 1013.5
20260507010210 8 176 11.3 11.3 0.00 0.00 0.00 93 1013.5
20260507010035 8 173 9.7 11.3 0.00 0.00 0.00 93 1013.5
20260507005610 8 177 9.7 11.3 0.00 0.00 0.00 93 1013.5
20260507005409 8 177 9.7 9.7 0.00 0.00 0.00 93 1013.5
20260507005209 8 169 9.7 12.9 0.00 0.00 0.00 93 1013.5
20260507005016 8 180 11.3 12.9 0.00 0.00 0.00 93 1013.5
20260507004610 8 176 9.7 9.7 0.00 0.00 0.00 93 1013.5
20260507004410 8 177 9.7 12.9 0.00 0.00 0.00 93 1013.5
20260507004210 8 175 9.7 9.7 0.00 0.00 0.00 93 1013.2
20260507003809 8 178 9.7 11.3 0.00 0.00 0.00 93 1013.5
20260507003610 8 178 9.7 11.3 0.00 0.00 0.00 93 1013.5
20260507003410 8 178 9.7 9.7 0.00 0.00 0.00 93 1013.5
20260507003210 8 180 9.7 11.3 0.00 0.00 0.00 93 1013.5
20260507003023 8 179 9.7 11.3 0.00 0.00 0.00 93 1013.5
20260507002809 8 180 9.7 11.3 0.00 0.00 0.00 93 1013.5
20260507002609 8 179 11.3 11.3 0.00 0.00 0.00 93 1013.5
20260507002410 8 180 9.7 12.9 0.00 0.00 0.00 93 1013.5
20260507002210 8 174 9.7 11.3 0.00 0.00 0.00 93 1013.5
20260507002016 8 174 9.7 11.3 0.00 0.00 0.00 93 1013.5
20260507001809 8 179 9.7 11.3 0.00 0.00 0.00 93 1013.5
20260507001610 8 173 9.7 11.3 0.00 0.00 0.00 93 1013.5
20260507001410 8 179 9.7 11.3 0.00 0.00 0.00 93 1013.2
20260507001210 8 173 11.3 11.3 0.00 0.00 0.00 93 1013.5
20260507000810 8 175 9.7 9.7 0.00 0.00 0.00 93 1013.5
20260507000412 8 176 11.3 11.3 0.00 0.00 0.00 93 1013.5
20260507000212 8 176 9.7 11.3 0.00 0.00 0.00 92 1013.2
20260507000036 8 179 9.7 9.7 0.00 0.00 0.00 92 1013.5
20260506235810 8 179 9.7 11.3 0.00 0.00 0.00 92 1013.5
20260506235611 8 179 9.7 12.9 0.00 0.00 0.00 92 1013.5
20260506235210 8 177 9.7 11.3 0.00 0.00 0.00 92 1013.5
20260506235016 8 180 9.7 12.9 0.00 0.00 0.00 92 1013.5
20260506234809 7 174 9.7 11.3 0.00 0.00 0.00 92 1013.5
20260506234610 7 175 11.3 11.3 0.00 0.00 0.00 92 1013.5
20260506234410 7 174 9.7 11.3 0.00 0.00 0.00 92 1013.5
20260506234210 7 179 9.7 11.3 0.00 0.00 0.00 92 1013.5
20260506234016 7 177 9.7 11.3 0.00 0.00 0.00 91 1013.5
20260506233810 7 178 11.3 11.3 0.00 0.00 0.00 91 1013.5
20260506233610 7 177 9.7 11.3 0.00 0.00 0.00 91 1013.5
20260506233210 7 177 9.7 11.3 0.00 0.00 0.00 91 1013.2
20260506233026 7 176 9.7 11.3 0.00 0.00 0.00 91 1013.5
20260506232410 7 177 11.3 12.9 0.00 0.00 0.00 91 1013.5
20260506232210 7 177 9.7 12.9 0.00 0.00 0.00 91 1013.5
20260506232016 7 177 11.3 12.9 0.00 0.00 0.00 91 1013.5
20260506231410 7 178 9.7 11.3 0.00 0.00 0.00 90 1013.2
20260506231210 7 177 9.7 11.3 0.00 0.00 0.00 90 1013.2
20260506231016 7 176 9.7 11.3 0.00 0.00 0.00 90 1013.2
20260506230810 7 177 9.7 9.7 0.00 0.00 0.00 90 1013.5
20260506230609 7 178 9.7 11.3 0.00 0.00 0.00 90 1013.5
20260506230410 7 177 9.7 11.3 0.00 0.00 0.00 90 1013.5
20260506230210 7 179 9.7 11.3 0.00 0.00 0.00 90 1013.5
20260506230033 7 178 9.7 11.3 0.00 0.00 0.00 90 1013.5
20260506225810 7 176 11.3 11.3 0.00 0.00 0.00 90 1013.2
20260506225410 8 176 9.7 11.3 0.00 0.00 0.00 89 1013.5
20260506225017 8 171 11.3 11.3 0.00 0.00 0.00 89 1013.5
20260506224809 8 177 9.7 11.3 0.00 0.00 0.00 89 1013.2
20260506224610 8 173 9.7 11.3 0.00 0.00 0.00 89 1013.2
20260506224412 8 176 9.7 11.3 0.00 0.00 0.00 89 1013.5
20260506224210 8 175 11.3 12.9 0.00 0.00 0.00 89 1013.2
20260506224016 8 177 11.3 12.9 0.00 0.00 0.00 89 1013.2
20260506223809 8 176 11.3 11.3 0.00 0.00 0.00 89 1012.9
20260506223609 8 177 9.7 11.3 0.00 0.00 0.00 89 1013.2
20260506223409 8 179 11.3 11.3 0.00 0.00 0.00 88 1013.2
20260506223210 8 178 9.7 11.3 0.00 0.00 0.00 88 1012.9
20260506223023 8 177 9.7 11.3 0.00 0.00 0.00 88 1013.2
20260506222811 8 178 11.3 11.3 0.00 0.00 0.00 88 1013.2
20260506222411 8 177 9.7 11.3 0.00 0.00 0.00 88 1013.2
20260506222016 8 176 11.3 12.9 0.00 0.00 0.00 88 1013.2
20260506221810 8 176 9.7 12.9 0.00 0.00 0.00 88 1013.2
20260506221610 8 176 11.3 12.9 0.00 0.00 0.00 88 1013.2
20260506221210 8 176 9.7 12.9 0.00 0.00 0.00 88 1013.2
20260506221015 8 174 11.3 12.9 0.00 0.00 0.00 88 1012.9
20260506220810 8 174 11.3 12.9 0.00 0.00 0.00 88 1012.9
20260506220610 8 176 11.3 12.9 0.00 0.00 0.00 87 1013.2
20260506220412 8 176 9.7 11.3 0.00 0.00 0.00 87 1013.2
20260506220033 8 175 11.3 12.9 0.00 0.00 3.23 87 1012.9
20260506215810 8 177 11.3 11.3 0.00 0.00 3.23 87 1012.9
20260506215610 8 177 9.7 11.3 0.00 0.00 3.23 87 1012.9
20260506215410 8 177 9.7 12.9 0.00 0.00 3.23 87 1012.9
20260506215210 8 174 11.3 12.9 0.00 0.00 3.23 87 1012.9
20260506215020 8 174 9.7 11.3 0.00 0.00 3.23 87 1012.9
20260506214810 8 175 11.3 12.9 0.00 0.00 3.23 87 1012.9
20260506214610 8 178 11.3 12.9 0.00 0.00 3.23 87 1012.9
20260506214410 8 177 11.3 12.9 0.00 0.00 3.23 86 1012.9
20260506214211 8 176 9.7 11.3 0.00 0.00 3.23 86 1012.9
20260506213810 8 177 9.7 11.3 0.00 0.00 3.23 86 1012.9
20260506213410 9 177 11.3 12.9 0.00 0.00 3.23 86 1012.9
20260506213210 9 175 9.7 12.9 0.00 0.00 3.23 86 1012.9
20260506212810 9 176 11.3 12.9 0.00 0.00 3.23 85 1012.9
20260506212610 9 177 9.7 12.9 0.00 0.00 3.23 85 1012.9
20260506212410 9 178 9.7 12.9 0.00 0.00 3.23 85 1012.9
20260506212209 9 176 11.3 12.9 0.00 0.00 3.23 85 1012.5
20260506212016 9 177 9.7 11.3 0.00 0.00 3.23 85 1012.9
20260506211609 9 175 11.3 11.3 0.00 0.00 3.23 85 1012.9
20260506211410 9 177 9.7 11.3 0.00 0.00 3.23 85 1012.9
20260506211016 9 179 11.3 11.3 0.00 0.00 3.23 85 1012.9
20260506210609 10 176 9.7 11.3 0.00 0.00 3.23 84 1012.9
20260506210211 10 179 9.7 11.3 0.00 0.00 3.23 84 1012.9
20260506210032 10 176 9.7 11.3 0.00 0.00 3.23 84 1012.9
20260506205810 10 177 11.3 11.3 0.00 0.00 3.23 84 1012.9
20260506205610 10 174 9.7 12.9 0.00 0.00 3.23 83 1012.9
20260506205410 10 177 9.7 11.3 0.00 0.00 3.23 83 1012.9
20260506205210 10 176 9.7 11.3 0.00 0.00 3.23 83 1012.9
20260506205015 10 176 9.7 11.3 0.00 0.00 3.23 83 1012.9
20260506204810 10 177 11.3 11.3 0.00 0.00 3.23 83 1012.5
20260506204410 10 178 9.7 12.9 0.00 0.00 3.23 83 1012.9
20260506204209 10 176 9.7 12.9 0.00 0.00 3.23 83 1012.9
20260506204016 10 174 11.3 12.9 0.00 0.00 3.23 82 1012.5
20260506203810 10 176 9.7 11.3 0.00 0.00 3.23 82 1012.9
20260506203610 10 174 11.3 12.9 0.00 0.00 3.23 82 1012.5
20260506203410 10 175 11.3 11.3 0.00 0.00 3.23 82 1012.5
20260506203210 10 175 9.7 12.9 0.00 0.00 3.23 82 1012.5
20260506203024 10 177 9.7 12.9 0.00 0.00 3.23 82 1012.9
20260506202810 10 175 11.3 11.3 0.00 0.00 3.23 82 1012.5
20260506202610 10 176 9.7 12.9 0.00 0.00 3.23 81 1012.5
20260506202210 10 177 11.3 11.3 0.00 0.00 3.23 81 1012.5
20260506202016 10 176 9.7 12.9 0.00 0.00 3.23 81 1012.5
20260506201610 10 176 11.3 12.9 0.00 0.00 3.23 81 1012.5
20260506201017 11 177 11.3 12.9 0.00 0.00 3.23 80 1012.2
20260506200810 11 173 9.7 12.9 0.00 0.00 3.23 80 1012.2
20260506200610 11 178 9.7 12.9 0.00 0.00 3.23 80 1012.5
20260506200410 11 175 9.7 11.3 0.00 0.00 3.23 79 1012.2
20260506200211 11 175 9.7 12.9 0.00 0.00 3.23 79 1012.5
20260506200033 11 176 12.9 12.9 0.00 0.00 3.23 79 1012.2
20260506195810 11 175 11.3 12.9 0.00 0.00 3.23 79 1012.2
20260506195610 11 175 11.3 11.3 0.00 0.00 3.23 79 1012.2
20260506195410 11 171 9.7 12.9 0.00 0.00 3.23 78 1012.2
20260506195210 11 177 9.7 12.9 0.00 0.00 3.23 78 1012.2
20260506195016 11 175 11.3 12.9 0.00 0.00 3.23 78 1012.2
20260506194810 11 176 9.7 11.3 0.00 0.00 3.23 78 1012.2
20260506194610 11 175 9.7 11.3 0.00 0.00 3.23 77 1012.2
20260506194411 11 179 9.7 11.3 0.00 0.00 3.23 77 1011.9
20260506194210 11 178 11.3 11.3 0.00 0.00 3.23 77 1011.9
20260506194015 11 181 9.7 11.3 0.00 0.00 3.23 77 1011.9
20260506193810 11 180 9.7 11.3 0.00 0.00 3.23 77 1011.9
20260506193610 11 178 11.3 11.3 0.00 0.00 3.23 77 1011.9
20260506193409 12 179 9.7 11.3 0.00 0.00 3.23 76 1011.9
20260506193209 12 179 9.7 9.7 0.00 0.00 3.23 76 1011.9
20260506193024 12 180 9.7 11.3 0.00 0.00 3.23 76 1011.9
20260506192810 12 178 9.7 11.3 0.00 0.00 3.23 76 1011.9
20260506192610 12 180 9.7 11.3 0.00 0.00 3.23 76 1011.9
20260506192410 12 178 9.7 11.3 0.00 0.00 3.23 75 1011.9
20260506192210 12 180 9.7 11.3 0.00 0.00 3.23 75 1011.5
20260506192017 12 180 9.7 9.7 0.00 0.00 3.23 75 1011.9
20260506191610 12 178 8.0 9.7 0.00 0.00 3.23 75 1011.5
20260506191410 12 180 8.0 9.7 0.00 0.00 3.23 75 1011.9
20260506191016 12 177 9.7 12.9 0.00 0.00 3.23 74 1011.5
20260506190810 12 173 6.4 9.7 0.00 0.00 3.23 74 1011.5
20260506190410 12 176 6.4 9.7 0.00 0.00 3.23 74 1011.5
20260506190210 12 175 8.0 9.7 0.00 0.00 3.23 74 1011.5
20260506190035 12 180 8.0 9.7 0.00 0.00 3.23 74 1011.5
20260506185810 12 179 8.0 11.3 0.00 0.00 3.23 74 1011.5
20260506185610 12 169 9.7 11.3 0.00 0.00 3.23 73 1011.5
20260506185410 12 180 6.4 9.7 0.00 0.00 3.23 73 1011.2
20260506185016 12 178 8.0 9.7 0.00 0.00 3.23 73 1011.5
20260506184812 12 180 8.0 9.7 0.00 0.00 3.23 73 1011.5
20260506184610 12 172 9.7 12.9 0.00 0.00 3.23 73 1011.5
20260506184210 12 176 8.0 11.3 0.00 0.00 3.23 72 1011.2
20260506184016 12 187 8.0 9.7 0.00 0.00 3.23 72 1011.5
20260506183810 12 186 8.0 9.7 0.00 0.00 3.23 72 1011.2
20260506183610 12 180 8.0 9.7 0.00 0.00 3.23 72 1011.5
20260506183409 12 207 8.0 12.9 0.00 0.00 3.23 72 1011.2
20260506183211 12 194 11.3 12.9 0.00 0.00 3.23 72 1011.2
20260506183025 12 183 9.7 11.3 0.00 0.00 3.23 72 1011.2
20260506182810 12 178 8.0 11.3 0.00 0.00 3.23 72 1011.2
20260506182610 12 188 8.0 12.9 0.00 0.00 3.23 72 1011.5
20260506182410 12 168 6.4 11.3 0.00 0.00 3.23 71 1011.2
20260506182016 12 173 9.7 9.7 0.00 0.00 3.23 71 1011.2
20260506181810 12 178 8.0 9.7 0.00 0.00 3.23 71 1011.2
20260506181611 12 180 9.7 9.7 0.00 0.00 3.23 71 1011.2
20260506181410 12 180 8.0 9.7 0.00 0.00 3.23 71 1011.2
20260506181016 13 172 9.7 12.9 0.00 0.00 3.23 70 1011.2
20260506180810 13 182 12.9 12.9 0.00 0.00 3.23 70 1010.8
20260506180610 13 180 6.4 11.3 0.00 0.00 3.23 70 1010.8
20260506180410 13 180 6.4 14.5 0.00 0.00 3.23 70 1010.8
20260506180211 13 171 8.0 11.3 0.00 0.00 3.23 70 1010.8
20260506180034 13 179 8.0 11.3 0.00 0.00 3.23 70 1010.8
20260506175810 13 182 8.0 17.7 0.00 0.00 3.23 71 1011.2
20260506175410 13 176 4.8 12.9 0.00 0.00 3.23 70 1010.8
20260506175210 13 176 6.4 12.9 0.00 0.00 3.23 70 1010.8
20260506174809 13 162 4.8 9.7 0.00 0.00 3.23 71 1010.8
20260506174610 13 175 6.4 11.3 0.00 0.00 3.23 70 1010.8
20260506174410 13 176 6.4 9.7 0.00 0.00 3.23 70 1010.8
20260506174017 13 181 6.4 9.7 0.00 0.00 3.23 70 1010.8
20260506173810 13 189 9.7 9.7 0.00 0.00 3.23 70 1010.8
20260506173610 13 172 9.7 9.7 0.00 0.00 3.23 70 1010.5
20260506173410 13 176 6.4 12.9 0.00 0.00 3.23 69 1010.8
20260506173210 13 173 4.8 9.7 0.00 0.00 3.23 69 1010.5
20260506173024 13 146 4.8 11.3 0.00 0.00 3.23 68 1010.5
20260506172811 13 177 9.7 12.9 0.00 0.00 3.23 68 1010.8
20260506172610 13 176 8.0 11.3 0.00 0.00 3.23 68 1010.8
20260506172410 13 170 9.7 9.7 0.00 0.00 3.23 67 1010.5
20260506172016 13 172 8.0 11.3 0.00 0.00 3.23 68 1010.8
20260506171810 13 189 9.7 11.3 0.00 0.00 3.23 67 1010.8
20260506171610 13 180 8.0 9.7 0.00 0.00 3.23 67 1010.5
20260506171409 13 190 8.0 11.3 0.00 0.00 3.23 66 1010.5
20260506171210 13 175 6.4 9.7 0.00 0.00 3.23 67 1010.5
20260506171017 13 166 4.8 16.1 0.00 0.00 3.23 66 1010.5
20260506170810 13 140 9.7 12.9 0.00 0.00 3.23 66 1010.5
20260506170610 13 159 6.4 12.9 0.00 0.00 3.23 66 1010.5
20260506170210 13 173 6.4 9.7 0.00 0.00 3.23 65 1010.5
20260506170036 14 193 6.4 12.9 0.00 0.00 3.23 65 1010.5
20260506165810 14 188 6.4 12.9 0.00 0.00 3.23 65 1010.8
20260506165610 14 161 8.0 11.3 0.00 0.00 3.23 65 1010.5
20260506165210 14 167 8.0 9.7 0.00 0.00 3.23 66 1010.5
20260506165016 14 200 8.0 8.0 0.00 0.00 3.23 65 1010.5
20260506164810 14 168 6.4 14.5 0.00 0.00 3.23 65 1010.5
20260506164610 14 213 14.5 14.5 0.00 0.00 3.23 65 1010.5
20260506164410 14 133 8.0 9.7 0.00 0.00 3.23 65 1010.5
20260506164210 14 180 6.4 9.7 0.00 0.00 3.23 64 1010.5
20260506164017 14 177 6.4 12.9 0.00 0.00 3.23 65 1010.5
20260506163610 14 166 4.8 11.3 0.00 0.00 3.23 64 1010.5
20260506163410 14 146 6.4 11.3 0.00 0.00 3.23 64 1010.2
20260506163210 14 192 8.0 14.5 0.00 0.00 3.23 64 1010.5
20260506163024 14 152 8.0 12.9 0.00 0.00 3.23 64 1010.2
20260506162810 14 180 8.0 9.7 0.00 0.00 3.23 65 1010.5
20260506162609 14 203 6.4 9.7 0.00 0.00 3.23 65 1010.2
20260506162409 14 171 6.4 9.7 0.00 0.00 3.23 64 1010.2
20260506162209 14 171 9.7 12.9 0.00 0.00 3.23 64 1010.2
20260506161810 14 172 8.0 9.7 0.00 0.00 3.23 64 1010.5
20260506161610 14 171 4.8 11.3 0.00 0.00 3.23 64 1010.2
20260506161210 14 184 6.4 11.3 0.00 0.00 3.23 63 1010.2
20260506161017 14 157 9.7 11.3 0.00 0.00 3.23 63 1010.2
20260506160610 15 180 6.4 9.7 0.00 0.00 3.23 63 1010.2
20260506160410 15 176 8.0 9.7 0.00 0.00 3.23 63 1010.2
20260506160211 15 180 8.0 9.7 0.00 0.00 3.23 64 1010.2
20260506155810 15 175 6.4 9.7 0.00 0.00 3.23 64 1010.2
20260506155610 15 188 6.4 9.7 0.00 0.00 3.23 65 1010.2
20260506155410 15 180 8.0 12.9 0.00 0.00 3.23 65 1010.2
20260506155016 15 192 9.7 9.7 0.00 0.00 3.23 64 1010.2
20260506154609 15 190 9.7 9.7 0.00 0.00 3.23 65 1009.8
20260506154409 15 176 6.4 9.7 0.00 0.00 3.23 65 1010.2
20260506154210 15 188 9.7 14.5 0.00 0.00 3.23 65 1010.2
20260506154016 15 167 6.4 11.3 0.00 0.00 3.23 66 1009.8
20260506153610 14 192 8.0 12.9 0.00 0.00 3.23 66 1010.2
20260506153211 14 180 6.4 11.3 0.00 0.00 3.23 65 1010.2
20260506153025 14 180 6.4 11.3 0.00 0.00 3.23 65 1010.2
20260506152810 14 171 6.4 9.7 0.00 0.00 3.23 65 1010.5
20260506152610 14 178 6.4 9.7 0.00 0.00 3.23 64 1010.2
20260506152410 14 201 8.0 9.7 0.00 0.00 3.23 63 1010.2
20260506152210 14 198 8.0 12.9 0.00 0.00 3.23 64 1010.5
20260506152016 14 166 6.4 14.5 0.00 0.00 3.23 64 1010.2
20260506151810 14 182 8.0 11.3 0.00 0.00 3.23 63 1010.5
20260506151410 14 179 8.0 9.7 0.00 0.00 3.23 63 1010.5
20260506151210 15 178 8.0 12.9 0.00 0.00 3.23 63 1010.2
20260506151016 15 200 9.7 12.9 0.00 0.00 3.23 64 1010.5
20260506150810 15 165 11.3 12.9 0.00 0.00 3.23 63 1010.2
20260506150610 15 190 9.7 12.9 0.00 0.00 3.23 62 1010.5
20260506150410 15 187 6.4 12.9 0.00 0.00 3.23 63 1010.2
20260506150210 15 180 8.0 12.9 0.00 0.00 3.23 63 1010.2
20260506150035 15 202 9.7 12.9 0.00 0.00 3.23 62 1010.5
20260506145810 15 180 9.7 9.7 0.00 0.00 3.23 62 1010.2
20260506145610 15 167 6.4 9.7 0.00 0.00 3.23 62 1010.5
20260506145410 15 101 4.8 9.7 0.00 0.00 3.23 63 1010.5
20260506145210 15 176 6.4 9.7 0.00 0.00 3.23 63 1010.2
20260506145018 15 188 6.4 11.3 0.00 0.00 3.23 62 1010.2
20260506144810 15 175 8.0 11.3 0.00 0.00 3.23 62 1010.5
20260506144409 15 176 6.4 9.7 0.00 0.00 3.23 61 1010.2
20260506144210 15 183 8.0 9.7 0.00 0.00 3.23 62 1010.2
20260506144017 15 170 6.4 12.9 0.00 0.00 3.23 62 1010.2
20260506143810 15 186 8.0 9.7 0.00 0.00 3.23 61 1010.2
20260506143210 16 173 8.0 11.3 0.00 0.00 3.23 60 1010.2
20260506143026 16 178 6.4 11.3 0.00 0.00 3.23 60 1010.2
20260506142611 16 184 8.0 11.3 0.00 0.00 3.23 60 1010.2
20260506142409 16 162 4.8 14.5 0.00 0.00 3.23 58 1010.2
20260506142210 16 187 8.0 14.5 0.00 0.00 3.23 59 1010.2
20260506142016 16 169 9.7 12.9 0.00 0.00 3.23 58 1010.2
20260506141810 16 177 8.0 12.9 0.00 0.00 3.23 57 1010.2
20260506141610 16 183 9.7 11.3 0.00 0.00 3.23 57 1010.2
20260506141410 16 180 8.0 9.7 0.00 0.00 3.23 56 1010.2
20260506141211 16 194 6.4 11.3 0.00 0.00 3.23 57 1010.2
20260506141016 16 172 8.0 11.3 0.00 0.00 3.23 57 1010.2
20260506140809 17 155 6.4 9.7 0.00 0.00 3.23 56 1009.8
20260506140610 17 170 6.4 9.7 0.00 0.00 3.23 57 1009.8
20260506140410 17 184 8.0 9.7 0.00 0.00 3.23 58 1009.8
20260506140210 17 181 8.0 11.3 0.00 0.00 3.23 56 1010.2
20260506140034 17 177 6.4 9.7 0.00 0.00 3.23 56 1010.2
20260506135810 17 160 4.8 8.0 0.00 0.00 3.23 56 1010.2
20260506135610 17 188 6.4 11.3 0.00 0.00 3.23 56 1010.2
20260506135410 17 150 3.2 9.7 0.00 0.00 3.23 57 1009.8
20260506135210 17 156 8.0 11.3 0.00 0.00 3.23 59 1010.2
20260506135016 17 159 4.8 9.7 0.00 0.00 3.23 58 1009.8
20260506134810 17 180 8.0 11.3 0.00 0.00 3.23 58 1009.8
20260506134610 17 185 9.7 12.9 0.00 0.00 3.23 60 1009.8
20260506134410 17 159 6.4 11.3 0.00 0.00 3.23 58 1010.2
20260506134210 17 173 4.8 11.3 0.00 0.00 3.23 57 1009.8
20260506134017 17 178 6.4 11.3 0.00 0.00 3.23 59 1010.2
20260506133810 17 176 8.0 12.9 0.00 0.00 3.23 57 1010.2
20260506133610 17 166 9.7 14.5 0.00 0.00 3.23 58 1010.2
20260506133410 17 172 6.4 11.3 0.00 0.00 3.23 58 1010.2